iso_date,epoch_date,Year,Hour,Min,DOY,POS_DOY,Lat,Lon,BP,Ts,Ta,has_bp,has_ts,has_ta,BuoyID,Buoy_Type,Buoy_Owner,Logistics,Hemisphere
2018-08-01T17:55:40Z,1533146141,2018,17,56,213.747,213.747,67.81897,-24.24022,1001.2,2.68,-999.0,yes,yes,no,300234063949810,BD2GHI,AOML,DNR,North
2018-08-01T18:00:00Z,1533146400,2018,18,0,213.75,213.75,67.81839,-24.24108,1001.2,2.62,-999.0,yes,yes,no,300234063949810,BD2GHI,AOML,DNR,North
2018-08-01T19:00:28Z,1533150029,2018,19,0,213.792,213.792,67.81063,-24.26181,1001.3,2.71,-999.0,yes,yes,no,300234063949810,BD2GHI,AOML,DNR,North
2018-08-01T20:02:24Z,1533153744,2018,20,2,213.835,213.835,67.80656,-24.28176,1002.2,2.78,-999.0,yes,yes,no,300234063949810,BD2GHI,AOML,DNR,North
2018-08-01T21:00:00Z,1533157200,2018,21,0,213.875,213.875,67.80571,-24.29285,1002.9,2.88,-999.0,yes,yes,no,300234063949810,BD2GHI,AOML,DNR,North
2018-08-01T22:00:28Z,1533160829,2018,22,0,213.917,213.917,67.80756,-24.29626,1003.3,2.93,-999.0,yes,yes,no,300234063949810,BD2GHI,AOML,DNR,North
2018-08-01T22:59:31Z,1533164371,2018,23,0,213.958,213.958,67.81217,-24.2859,1003.8,2.99,-999.0,yes,yes,no,300234063949810,BD2GHI,AOML,DNR,North
2018-08-02T00:00:00Z,1533168000,2018,0,0,214.0,214.0,67.81811,-24.26383,1004.0,2.97,-999.0,yes,yes,no,300234063949810,BD2GHI,AOML,DNR,North
2018-08-02T01:00:28Z,1533171629,2018,1,0,214.042,214.042,67.82153,-24.23195,1004.2,2.87,-999.0,yes,yes,no,300234063949810,BD2GHI,AOML,DNR,North
2018-08-02T02:00:57Z,1533175258,2018,2,1,214.084,214.084,67.82263,-24.19522,1004.6,2.82,-999.0,yes,yes,no,300234063949810,BD2GHI,AOML,DNR,North
2018-08-02T03:00:00Z,1533178800,2018,3,0,214.125,214.125,67.8194,-24.16529,1004.7,2.85,-999.0,yes,yes,no,300234063949810,BD2GHI,AOML,DNR,North
2018-08-02T04:00:28Z,1533182429,2018,4,0,214.167,214.167,67.81165,-24.14593,1005.0,2.81,-999.0,yes,yes,no,300234063949810,BD2GHI,AOML,DNR,North
2018-08-02T05:00:57Z,1533186058,2018,5,1,214.209,214.209,67.80043,-24.1364,1005.3,2.69,-999.0,yes,yes,no,300234063949810,BD2GHI,AOML,DNR,North
2018-08-02T06:00:00Z,1533189600,2018,6,0,214.25,214.25,67.78696,-24.14286,1005.8,2.45,-999.0,yes,yes,no,300234063949810,BD2GHI,AOML,DNR,North
2018-08-02T07:00:28Z,1533193229,2018,7,0,214.292,214.292,67.77426,-24.16378,1006.2,2.44,-999.0,yes,yes,no,300234063949810,BD2GHI,AOML,DNR,North
2018-08-02T07:59:31Z,1533196771,2018,8,0,214.333,214.333,67.76435,-24.19597,1006.6,2.43,-999.0,yes,yes,no,300234063949810,BD2GHI,AOML,DNR,North
2018-08-02T09:00:00Z,1533200400,2018,9,0,214.375,214.375,67.75695,-24.22564,1006.5,2.48,-999.0,yes,yes,no,300234063949810,BD2GHI,AOML,DNR,North
2018-08-02T10:00:28Z,1533204029,2018,10,0,214.417,214.417,67.75357,-24.24832,1006.6,3.04,-999.0,yes,yes,no,300234063949810,BD2GHI,AOML,DNR,North
2018-08-02T10:59:31Z,1533207571,2018,11,0,214.458,214.458,67.75556,-24.26393,1006.9,3.1,-999.0,yes,yes,no,300234063949810,BD2GHI,AOML,DNR,North
2018-08-02T12:00:00Z,1533211200,2018,12,0,214.5,214.5,67.75805,-24.26307,1007.4,3.13,-999.0,yes,yes,no,300234063949810,BD2GHI,AOML,DNR,North
2018-08-02T13:00:28Z,1533214829,2018,13,0,214.542,214.542,67.76163,-24.25181,1008.0,3.15,-999.0,yes,yes,no,300234063949810,BD2GHI,AOML,DNR,North
2018-08-02T13:59:31Z,1533218371,2018,14,0,214.583,214.583,67.76405,-24.23253,1008.4,3.16,-999.0,yes,yes,no,300234063949810,BD2GHI,AOML,DNR,North
2018-08-02T15:01:26Z,1533222086,2018,15,2,214.626,214.626,67.76148,-24.21074,1008.6,3.16,-999.0,yes,yes,no,300234063949810,BD2GHI,AOML,DNR,North
2018-08-02T16:00:28Z,1533225629,2018,16,0,214.667,214.667,67.75351,-24.20102,1008.8,3.19,-999.0,yes,yes,no,300234063949810,BD2GHI,AOML,DNR,North
2018-08-02T16:59:31Z,1533229171,2018,17,0,214.708,214.708,67.74176,-24.20075,1009.2,3.2,-999.0,yes,yes,no,300234063949810,BD2GHI,AOML,DNR,North
2018-08-02T19:00:28Z,1533236429,2018,19,0,214.792,214.792,67.7134,-24.23484,1010.2,3.2,-999.0,yes,yes,no,300234063949810,BD2GHI,AOML,DNR,North
2018-08-02T19:59:31Z,1533239971,2018,20,0,214.833,214.833,67.70016,-24.26332,1010.6,3.17,-999.0,yes,yes,no,300234063949810,BD2GHI,AOML,DNR,North
2018-08-02T21:00:00Z,1533243600,2018,21,0,214.875,214.875,67.68982,-24.29597,1011.0,3.18,-999.0,yes,yes,no,300234063949810,BD2GHI,AOML,DNR,North
2018-08-02T22:00:28Z,1533247229,2018,22,0,214.917,214.917,67.68419,-24.32261,1011.2,3.1,-999.0,yes,yes,no,300234063949810,BD2GHI,AOML,DNR,North
2018-08-02T22:59:31Z,1533250771,2018,23,0,214.958,214.958,67.68309,-24.34167,1011.4,3.14,-999.0,yes,yes,no,300234063949810,BD2GHI,AOML,DNR,North
2018-08-03T00:00:00Z,1533254400,2018,0,0,215.0,215.0,67.6854,-24.34472,1011.6,3.16,-999.0,yes,yes,no,300234063949810,BD2GHI,AOML,DNR,North
2018-08-03T01:00:28Z,1533258029,2018,1,0,215.042,215.042,67.68907,-24.3358,1011.7,3.16,-999.0,yes,yes,no,300234063949810,BD2GHI,AOML,DNR,North
2018-08-03T01:59:31Z,1533261571,2018,2,0,215.083,215.083,67.6914,-24.31167,1011.7,3.2,-999.0,yes,yes,no,300234063949810,BD2GHI,AOML,DNR,North
2018-08-03T03:00:00Z,1533265200,2018,3,0,215.125,215.125,67.68951,-24.2835,1011.7,3.22,-999.0,yes,yes,no,300234063949810,BD2GHI,AOML,DNR,North
2018-08-03T04:00:28Z,1533268829,2018,4,0,215.167,215.167,67.68238,-24.26399,1011.5,3.18,-999.0,yes,yes,no,300234063949810,BD2GHI,AOML,DNR,North
2018-08-03T04:59:31Z,1533272371,2018,5,0,215.208,215.208,67.66996,-24.25577,1011.6,3.19,-999.0,yes,yes,no,300234063949810,BD2GHI,AOML,DNR,North
2018-08-03T06:00:00Z,1533276000,2018,6,0,215.25,215.25,67.65428,-24.2587,1011.8,3.21,-999.0,yes,yes,no,300234063949810,BD2GHI,AOML,DNR,North
2018-08-03T07:00:28Z,1533279629,2018,7,0,215.292,215.292,67.63534,-24.27665,1012.0,3.23,-999.0,yes,yes,no,300234063949810,BD2GHI,AOML,DNR,North
2018-08-03T07:59:31Z,1533283171,2018,8,0,215.333,215.333,67.61942,-24.30656,1012.3,3.23,-999.0,yes,yes,no,300234063949810,BD2GHI,AOML,DNR,North
2018-08-03T09:00:00Z,1533286800,2018,9,0,215.375,215.375,67.60195,-24.34878,1012.4,3.24,-999.0,yes,yes,no,300234063949810,BD2GHI,AOML,DNR,North
2018-08-03T10:00:28Z,1533290429,2018,10,0,215.417,215.417,67.59193,-24.38586,1012.6,3.25,-999.0,yes,yes,no,300234063949810,BD2GHI,AOML,DNR,North
2018-08-03T10:59:31Z,1533293971,2018,11,0,215.458,215.458,67.58734,-24.40982,1012.8,3.21,-999.0,yes,yes,no,300234063949810,BD2GHI,AOML,DNR,North
2018-08-03T12:00:00Z,1533297600,2018,12,0,215.5,215.5,67.58447,-24.41751,1012.9,3.7,-999.0,yes,yes,no,300234063949810,BD2GHI,AOML,DNR,North
2018-08-03T13:00:28Z,1533301229,2018,13,0,215.542,215.542,67.58191,-24.41171,1013.0,3.7,-999.0,yes,yes,no,300234063949810,BD2GHI,AOML,DNR,North
2018-08-03T13:59:31Z,1533304771,2018,14,0,215.583,215.583,67.57732,-24.39759,1013.2,3.76,-999.0,yes,yes,no,300234063949810,BD2GHI,AOML,DNR,North
2018-08-03T15:00:00Z,1533308400,2018,15,0,215.625,215.625,67.57048,-24.38164,1013.3,3.93,-999.0,yes,yes,no,300234063949810,BD2GHI,AOML,DNR,North
2018-08-03T16:00:28Z,1533312029,2018,16,0,215.667,215.667,67.559,-24.36458,1013.2,4.04,-999.0,yes,yes,no,300234063949810,BD2GHI,AOML,DNR,North
2018-08-03T16:59:31Z,1533315571,2018,17,0,215.708,215.708,67.54194,-24.35385,1012.9,4.09,-999.0,yes,yes,no,300234063949810,BD2GHI,AOML,DNR,North
2018-08-03T18:00:00Z,1533319200,2018,18,0,215.75,215.75,67.52,-24.3617,1013.2,3.58,-999.0,yes,yes,no,300234063949810,BD2GHI,AOML,DNR,North
2018-08-03T19:00:28Z,1533322829,2018,19,0,215.792,215.792,67.49709,-24.38949,1013.4,3.74,-999.0,yes,yes,no,300234063949810,BD2GHI,AOML,DNR,North
2018-08-03T19:59:31Z,1533326371,2018,20,0,215.833,215.833,67.47597,-24.42901,1013.6,3.8,-999.0,yes,yes,no,300234063949810,BD2GHI,AOML,DNR,North
2018-08-03T21:00:00Z,1533330000,2018,21,0,215.875,215.875,67.45988,-24.47393,1013.8,3.84,-999.0,yes,yes,no,300234063949810,BD2GHI,AOML,DNR,North
2018-08-03T22:00:28Z,1533333629,2018,22,0,215.917,215.917,67.44922,-24.51003,1013.8,4.05,-999.0,yes,yes,no,300234063949810,BD2GHI,AOML,DNR,North
2018-08-03T22:59:31Z,1533337171,2018,23,0,215.958,215.958,67.44025,-24.53703,1014.0,3.7,-999.0,yes,yes,no,300234063949810,BD2GHI,AOML,DNR,North
2018-08-04T00:00:00Z,1533340800,2018,0,0,216.0,216.0,67.43425,-24.55626,1013.8,4.51,-999.0,yes,yes,no,300234063949810,BD2GHI,AOML,DNR,North
2018-08-04T01:00:28Z,1533344429,2018,1,0,216.042,216.042,67.4296,-24.56402,1013.9,4.17,-999.0,yes,yes,no,300234063949810,BD2GHI,AOML,DNR,North
2018-08-04T01:59:31Z,1533347971,2018,2,0,216.083,216.083,67.42431,-24.56445,1013.8,4.08,-999.0,yes,yes,no,300234063949810,BD2GHI,AOML,DNR,North
2018-08-04T03:00:00Z,1533351600,2018,3,0,216.125,216.125,67.41669,-24.55842,1013.9,4.03,-999.0,yes,yes,no,300234063949810,BD2GHI,AOML,DNR,North
2018-08-04T04:00:28Z,1533355229,2018,4,0,216.167,216.167,67.40313,-24.56022,1013.8,3.94,-999.0,yes,yes,no,300234063949810,BD2GHI,AOML,DNR,North
2018-08-04T04:59:31Z,1533358771,2018,5,0,216.208,216.208,67.38855,-24.57177,1014.0,3.94,-999.0,yes,yes,no,300234063949810,BD2GHI,AOML,DNR,North
2018-08-04T06:00:00Z,1533362400,2018,6,0,216.25,216.25,67.37282,-24.59466,1014.1,3.95,-999.0,yes,yes,no,300234063949810,BD2GHI,AOML,DNR,North
2018-08-04T07:00:28Z,1533366029,2018,7,1,216.292,216.292,67.35702,-24.63231,1014.6,3.94,-999.0,yes,yes,no,300234063949810,BD2GHI,AOML,DNR,North
2018-08-04T07:59:31Z,1533369571,2018,8,0,216.333,216.333,67.34335,-24.67455,1014.8,3.86,-999.0,yes,yes,no,300234063949810,BD2GHI,AOML,DNR,North
2018-08-04T09:00:00Z,1533373200,2018,9,0,216.375,216.375,67.33211,-24.719,1015.1,3.96,-999.0,yes,yes,no,300234063949810,BD2GHI,AOML,DNR,North
2018-08-04T10:00:28Z,1533376829,2018,10,0,216.417,216.417,67.3207,-24.76093,1015.4,4.12,-999.0,yes,yes,no,300234063949810,BD2GHI,AOML,DNR,North
2018-08-04T10:59:31Z,1533380371,2018,11,0,216.458,216.458,67.31511,-24.80518,1015.5,4.28,-999.0,yes,yes,no,300234063949810,BD2GHI,AOML,DNR,North
2018-08-04T12:00:00Z,1533384000,2018,12,0,216.5,216.5,67.30635,-24.84042,1015.7,4.17,-999.0,yes,yes,no,300234063949810,BD2GHI,AOML,DNR,North
2018-08-04T13:00:28Z,1533387629,2018,13,0,216.542,216.542,67.30022,-24.87071,1015.9,4.27,-999.0,yes,yes,no,300234063949810,BD2GHI,AOML,DNR,North
2018-08-04T13:59:31Z,1533391171,2018,14,0,216.583,216.583,67.29565,-24.89851,1016.0,4.49,-999.0,yes,yes,no,300234063949810,BD2GHI,AOML,DNR,North
2018-08-04T15:00:00Z,1533394800,2018,15,0,216.625,216.625,67.29095,-24.92935,1016.0,5.51,-999.0,yes,yes,no,300234063949810,BD2GHI,AOML,DNR,North
2018-08-04T16:00:28Z,1533398429,2018,16,0,216.667,216.667,67.28363,-24.95319,1016.1,5.25,-999.0,yes,yes,no,300234063949810,BD2GHI,AOML,DNR,North
2018-08-04T16:59:31Z,1533401971,2018,17,0,216.708,216.708,67.27316,-24.97937,1015.9,5.21,-999.0,yes,yes,no,300234063949810,BD2GHI,AOML,DNR,North
2018-08-04T18:00:00Z,1533405600,2018,18,0,216.75,216.75,67.2617,-25.00991,1015.8,5.31,-999.0,yes,yes,no,300234063949810,BD2GHI,AOML,DNR,North
2018-08-04T19:00:28Z,1533409229,2018,19,0,216.792,216.792,67.25147,-25.04623,1016.0,5.02,-999.0,yes,yes,no,300234063949810,BD2GHI,AOML,DNR,North
2018-08-04T19:59:31Z,1533412771,2018,20,0,216.833,216.833,67.2418,-25.08551,1016.2,5.7,-999.0,yes,yes,no,300234063949810,BD2GHI,AOML,DNR,North
2018-08-04T21:00:00Z,1533416400,2018,21,0,216.875,216.875,67.22962,-25.12671,1016.4,4.32,-999.0,yes,yes,no,300234063949810,BD2GHI,AOML,DNR,North
2018-08-04T22:00:28Z,1533420029,2018,22,0,216.917,216.917,67.21864,-25.17423,1016.3,4.29,-999.0,yes,yes,no,300234063949810,BD2GHI,AOML,DNR,North
2018-08-04T22:59:31Z,1533423571,2018,23,0,216.958,216.958,67.20975,-25.22447,1016.3,4.32,-999.0,yes,yes,no,300234063949810,BD2GHI,AOML,DNR,North
2018-08-05T00:00:00Z,1533427200,2018,0,0,217.0,217.0,67.20233,-25.26719,1016.3,4.03,-999.0,yes,yes,no,300234063949810,BD2GHI,AOML,DNR,North
2018-08-05T01:00:28Z,1533430829,2018,1,0,217.042,217.042,67.19765,-25.30304,1016.3,3.9,-999.0,yes,yes,no,300234063949810,BD2GHI,AOML,DNR,North
2018-08-05T01:59:31Z,1533434371,2018,2,0,217.083,217.083,67.1953,-25.3301,1016.3,4.15,-999.0,yes,yes,no,300234063949810,BD2GHI,AOML,DNR,North
2018-08-05T03:00:00Z,1533438000,2018,3,0,217.125,217.125,67.19794,-25.35308,1016.2,4.23,-999.0,yes,yes,no,300234063949810,BD2GHI,AOML,DNR,North
2018-08-05T04:00:28Z,1533441629,2018,4,0,217.167,217.167,67.2013,-25.36958,1016.0,4.35,-999.0,yes,yes,no,300234063949810,BD2GHI,AOML,DNR,North
2018-08-05T04:59:31Z,1533445171,2018,5,0,217.208,217.208,67.20271,-25.38042,1016.1,4.28,-999.0,yes,yes,no,300234063949810,BD2GHI,AOML,DNR,North
2018-08-05T06:00:00Z,1533448800,2018,6,0,217.25,217.25,67.20289,-25.38733,1016.0,4.3,-999.0,yes,yes,no,300234063949810,BD2GHI,AOML,DNR,North
2018-08-05T07:00:28Z,1533452429,2018,7,0,217.292,217.292,67.19722,-25.40055,1016.1,4.13,-999.0,yes,yes,no,300234063949810,BD2GHI,AOML,DNR,North
2018-08-05T07:59:31Z,1533455971,2018,8,0,217.333,217.333,67.1876,-25.42265,1016.2,4.01,-999.0,yes,yes,no,300234063949810,BD2GHI,AOML,DNR,North
2018-08-05T09:00:00Z,1533459600,2018,9,0,217.375,217.375,67.17505,-25.45786,1016.2,3.9,-999.0,yes,yes,no,300234063949810,BD2GHI,AOML,DNR,North
2018-08-05T10:00:28Z,1533463229,2018,10,0,217.417,217.417,67.16114,-25.50621,1016.2,3.82,-999.0,yes,yes,no,300234063949810,BD2GHI,AOML,DNR,North
2018-08-05T10:59:31Z,1533466771,2018,11,0,217.458,217.458,67.15091,-25.56339,1016.3,3.93,-999.0,yes,yes,no,300234063949810,BD2GHI,AOML,DNR,North
2018-08-05T12:00:00Z,1533470400,2018,12,0,217.5,217.5,67.14622,-25.62522,1016.4,3.84,-999.0,yes,yes,no,300234063949810,BD2GHI,AOML,DNR,North
2018-08-05T13:00:28Z,1533474029,2018,13,0,217.542,217.542,67.14666,-25.68055,1016.5,3.64,-999.0,yes,yes,no,300234063949810,BD2GHI,AOML,DNR,North
2018-08-05T13:59:31Z,1533477571,2018,14,0,217.583,217.583,67.1534,-25.72364,1016.5,3.45,-999.0,yes,yes,no,300234063949810,BD2GHI,AOML,DNR,North
2018-08-05T15:00:00Z,1533481200,2018,15,0,217.625,217.625,67.16275,-25.75422,1016.4,3.49,-999.0,yes,yes,no,300234063949810,BD2GHI,AOML,DNR,North
2018-08-05T16:00:28Z,1533484829,2018,16,0,217.667,217.667,67.17364,-25.7668,1016.0,3.65,-999.0,yes,yes,no,300234063949810,BD2GHI,AOML,DNR,North
2018-08-05T16:59:31Z,1533488371,2018,17,0,217.708,217.708,67.18085,-25.76719,1016.0,3.65,-999.0,yes,yes,no,300234063949810,BD2GHI,AOML,DNR,North
2018-08-05T18:00:00Z,1533492000,2018,18,0,217.75,217.75,67.18196,-25.76819,1015.6,3.67,-999.0,yes,yes,no,300234063949810,BD2GHI,AOML,DNR,North
2018-08-05T19:00:28Z,1533495629,2018,19,0,217.792,217.792,67.17623,-25.77885,1015.6,3.66,-999.0,yes,yes,no,300234063949810,BD2GHI,AOML,DNR,North
2018-08-05T19:59:31Z,1533499171,2018,20,0,217.833,217.833,67.16681,-25.80616,1015.9,3.65,-999.0,yes,yes,no,300234063949810,BD2GHI,AOML,DNR,North
2018-08-05T21:00:00Z,1533502800,2018,21,0,217.875,217.875,67.15769,-25.84876,1015.8,3.69,-999.0,yes,yes,no,300234063949810,BD2GHI,AOML,DNR,North
2018-08-05T22:00:28Z,1533506429,2018,22,0,217.917,217.917,67.1489,-25.90108,1015.9,3.8,-999.0,yes,yes,no,300234063949810,BD2GHI,AOML,DNR,North
2018-08-05T22:59:31Z,1533509971,2018,23,0,217.958,217.958,67.14415,-25.95847,1016.0,3.83,-999.0,yes,yes,no,300234063949810,BD2GHI,AOML,DNR,North
2018-08-06T00:00:00Z,1533513600,2018,0,0,218.0,218.0,67.14551,-26.01199,1015.8,3.8,-999.0,yes,yes,no,300234063949810,BD2GHI,AOML,DNR,North
2018-08-06T01:00:28Z,1533517229,2018,1,0,218.042,218.042,67.14946,-26.06119,1015.8,3.74,-999.0,yes,yes,no,300234063949810,BD2GHI,AOML,DNR,North
2018-08-06T01:59:31Z,1533520771,2018,2,0,218.083,218.083,67.15785,-26.09912,1015.7,3.62,-999.0,yes,yes,no,300234063949810,BD2GHI,AOML,DNR,North
2018-08-06T03:01:26Z,1533524486,2018,3,1,218.126,218.126,67.17063,-26.12591,1015.4,3.51,-999.0,yes,yes,no,300234063949810,BD2GHI,AOML,DNR,North
2018-08-06T04:00:28Z,1533528029,2018,4,0,218.167,218.167,67.18475,-26.13235,1015.1,3.46,-999.0,yes,yes,no,300234063949810,BD2GHI,AOML,DNR,North
2018-08-06T04:59:31Z,1533531571,2018,5,0,218.208,218.208,67.19497,-26.13408,1015.1,3.43,-999.0,yes,yes,no,300234063949810,BD2GHI,AOML,DNR,North
2018-08-06T06:00:00Z,1533535200,2018,6,0,218.25,218.25,67.19989,-26.14228,1015.0,3.45,-999.0,yes,yes,no,300234063949810,BD2GHI,AOML,DNR,North
2018-08-06T07:00:28Z,1533538829,2018,7,0,218.292,218.292,67.20052,-26.15611,1015.3,3.51,-999.0,yes,yes,no,300234063949810,BD2GHI,AOML,DNR,North
2018-08-06T07:59:31Z,1533542371,2018,8,0,218.333,218.333,67.19085,-26.18144,1015.3,3.54,-999.0,yes,yes,no,300234063949810,BD2GHI,AOML,DNR,North
2018-08-06T09:00:00Z,1533546000,2018,9,0,218.375,218.375,67.18275,-26.22256,1015.9,3.53,-999.0,yes,yes,no,300234063949810,BD2GHI,AOML,DNR,North
2018-08-06T10:00:28Z,1533549629,2018,10,0,218.417,218.417,67.174,-26.27594,1015.7,3.5,-999.0,yes,yes,no,300234063949810,BD2GHI,AOML,DNR,North
2018-08-06T10:59:31Z,1533553171,2018,11,0,218.458,218.458,67.16742,-26.34335,1015.7,3.51,-999.0,yes,yes,no,300234063949810,BD2GHI,AOML,DNR,North
2018-08-06T12:00:00Z,1533556800,2018,12,0,218.5,218.5,67.16868,-26.41658,1015.9,3.48,-999.0,yes,yes,no,300234063949810,BD2GHI,AOML,DNR,North
2018-08-06T13:00:28Z,1533560429,2018,13,0,218.542,218.542,67.17474,-26.48235,1016.0,3.4,-999.0,yes,yes,no,300234063949810,BD2GHI,AOML,DNR,North
2018-08-06T13:59:31Z,1533563971,2018,14,0,218.583,218.583,67.18651,-26.5267,1016.4,3.42,-999.0,yes,yes,no,300234063949810,BD2GHI,AOML,DNR,North
2018-08-06T15:00:00Z,1533567600,2018,15,0,218.625,218.625,67.19533,-26.55242,1016.1,3.47,-999.0,yes,yes,no,300234063949810,BD2GHI,AOML,DNR,North
2018-08-06T16:00:28Z,1533571229,2018,16,0,218.667,218.667,67.2055,-26.57642,1016.4,3.6,-999.0,yes,yes,no,300234063949810,BD2GHI,AOML,DNR,North
2018-08-06T16:59:31Z,1533574771,2018,17,0,218.708,218.708,67.21201,-26.58902,1016.2,3.58,-999.0,yes,yes,no,300234063949810,BD2GHI,AOML,DNR,North
2018-08-06T18:00:00Z,1533578400,2018,18,0,218.75,218.75,67.21599,-26.5971,1015.9,3.6,-999.0,yes,yes,no,300234063949810,BD2GHI,AOML,DNR,North
2018-08-06T19:00:28Z,1533582029,2018,19,0,218.792,218.792,67.21673,-26.60388,1016.1,3.55,-999.0,yes,yes,no,300234063949810,BD2GHI,AOML,DNR,North
2018-08-06T19:59:31Z,1533585571,2018,19,59,218.833,218.833,67.33172,-26.96298,1016.4,3.5,-999.0,yes,yes,no,300234063949810,BD2GHI,AOML,DNR,North
2018-08-06T21:00:00Z,1533589200,2018,21,0,218.875,218.875,67.20089,-26.63698,1016.3,3.48,-999.0,yes,yes,no,300234063949810,BD2GHI,AOML,DNR,North
2018-08-06T22:00:28Z,1533592829,2018,22,0,218.917,218.917,67.19211,-26.66696,1016.7,3.45,-999.0,yes,yes,no,300234063949810,BD2GHI,AOML,DNR,North
2018-08-06T22:59:31Z,1533596371,2018,23,0,218.958,218.958,67.18728,-26.70426,1016.8,3.35,-999.0,yes,yes,no,300234063949810,BD2GHI,AOML,DNR,North
2018-08-07T00:00:00Z,1533600000,2018,0,0,219.0,219.0,67.18636,-26.7422,1016.9,3.3,-999.0,yes,yes,no,300234063949810,BD2GHI,AOML,DNR,North
2018-08-07T01:00:28Z,1533603629,2018,1,0,219.042,219.042,67.19004,-26.77186,1016.9,3.26,-999.0,yes,yes,no,300234063949810,BD2GHI,AOML,DNR,North
2018-08-07T01:59:31Z,1533607171,2018,2,0,219.083,219.083,67.19947,-26.7907,1016.8,3.25,-999.0,yes,yes,no,300234063949810,BD2GHI,AOML,DNR,North
2018-08-07T03:00:00Z,1533610800,2018,3,0,219.125,219.125,67.20993,-26.78688,1016.6,3.26,-999.0,yes,yes,no,300234063949810,BD2GHI,AOML,DNR,North
2018-08-07T04:00:28Z,1533614429,2018,4,0,219.167,219.167,67.22089,-26.76865,1016.6,3.26,-999.0,yes,yes,no,300234063949810,BD2GHI,AOML,DNR,North
2018-08-07T04:59:31Z,1533617971,2018,5,0,219.208,219.208,67.22733,-26.74897,1016.5,3.41,-999.0,yes,yes,no,300234063949810,BD2GHI,AOML,DNR,North
2018-08-07T06:00:00Z,1533621600,2018,6,0,219.25,219.25,67.23333,-26.73115,1016.4,3.4,-999.0,yes,yes,no,300234063949810,BD2GHI,AOML,DNR,North
2018-08-07T07:00:28Z,1533625229,2018,7,0,219.292,219.292,67.23656,-26.72238,1016.3,3.4,-999.0,yes,yes,no,300234063949810,BD2GHI,AOML,DNR,North
2018-08-07T07:59:31Z,1533628771,2018,8,0,219.333,219.333,67.23667,-26.72128,1016.3,3.4,-999.0,yes,yes,no,300234063949810,BD2GHI,AOML,DNR,North
2018-08-07T09:00:00Z,1533632400,2018,9,0,219.375,219.375,67.23316,-26.73273,1016.1,3.39,-999.0,yes,yes,no,300234063949810,BD2GHI,AOML,DNR,North
2018-08-07T10:00:28Z,1533636029,2018,10,0,219.417,219.417,67.22923,-26.75764,1016.1,3.47,-999.0,yes,yes,no,300234063949810,BD2GHI,AOML,DNR,North
2018-08-07T10:59:31Z,1533639571,2018,11,0,219.458,219.458,67.2247,-26.78999,1016.1,3.53,-999.0,yes,yes,no,300234063949810,BD2GHI,AOML,DNR,North
2018-08-07T12:00:00Z,1533643200,2018,12,0,219.5,219.5,67.22357,-26.83099,1015.9,3.59,-999.0,yes,yes,no,300234063949810,BD2GHI,AOML,DNR,North
2018-08-07T13:00:28Z,1533646829,2018,13,0,219.542,219.542,67.22554,-26.87252,1015.8,3.69,-999.0,yes,yes,no,300234063949810,BD2GHI,AOML,DNR,North
2018-08-07T13:59:31Z,1533650371,2018,14,0,219.583,219.583,67.23007,-26.90587,1015.5,3.78,-999.0,yes,yes,no,300234063949810,BD2GHI,AOML,DNR,North
2018-08-07T15:00:00Z,1533654000,2018,15,0,219.625,219.625,67.23616,-26.93647,1015.1,3.9,-999.0,yes,yes,no,300234063949810,BD2GHI,AOML,DNR,North
2018-08-07T16:00:28Z,1533657629,2018,16,1,219.667,219.667,67.24673,-26.95434,1014.8,3.82,-999.0,yes,yes,no,300234063949810,BD2GHI,AOML,DNR,North
2018-08-07T16:59:31Z,1533661171,2018,17,0,219.708,219.708,67.25756,-26.96839,1014.3,3.94,-999.0,yes,yes,no,300234063949810,BD2GHI,AOML,DNR,North
2018-08-07T18:00:00Z,1533664800,2018,18,0,219.75,219.75,67.26815,-26.9751,1014.2,3.92,-999.0,yes,yes,no,300234063949810,BD2GHI,AOML,DNR,North
2018-08-07T19:00:28Z,1533668429,2018,19,0,219.792,219.792,67.27636,-26.97897,1014.0,3.91,-999.0,yes,yes,no,300234063949810,BD2GHI,AOML,DNR,North
2018-08-07T19:59:31Z,1533671971,2018,20,0,219.833,219.833,67.28283,-26.97825,1013.7,3.89,-999.0,yes,yes,no,300234063949810,BD2GHI,AOML,DNR,North
2018-08-07T21:00:00Z,1533675600,2018,21,0,219.875,219.875,67.28746,-26.98167,1013.3,3.88,-999.0,yes,yes,no,300234063949810,BD2GHI,AOML,DNR,North
2018-08-07T22:00:28Z,1533679229,2018,22,0,219.917,219.917,67.28984,-26.98537,1013.0,3.87,-999.0,yes,yes,no,300234063949810,BD2GHI,AOML,DNR,North
2018-08-07T22:59:31Z,1533682771,2018,23,0,219.958,219.958,67.29032,-26.99433,1012.7,3.78,-999.0,yes,yes,no,300234063949810,BD2GHI,AOML,DNR,North
2018-08-08T00:00:00Z,1533686400,2018,0,0,220.0,220.0,67.29272,-27.00746,1012.3,3.77,-999.0,yes,yes,no,300234063949810,BD2GHI,AOML,DNR,North
2018-08-08T01:00:28Z,1533690029,2018,1,0,220.042,220.042,67.29564,-27.01944,1011.7,3.78,-999.0,yes,yes,no,300234063949810,BD2GHI,AOML,DNR,North
2018-08-08T01:59:31Z,1533693571,2018,2,0,220.083,220.083,67.29939,-27.02881,1011.1,3.83,-999.0,yes,yes,no,300234063949810,BD2GHI,AOML,DNR,North
2018-08-08T03:01:26Z,1533697286,2018,3,1,220.126,220.126,67.30746,-27.02975,1011.1,3.8,-999.0,yes,yes,no,300234063949810,BD2GHI,AOML,DNR,North
2018-08-08T04:00:28Z,1533700829,2018,4,0,220.167,220.167,67.31492,-27.01566,1010.5,3.8,-999.0,yes,yes,no,300234063949810,BD2GHI,AOML,DNR,North
2018-08-08T04:59:31Z,1533704371,2018,5,0,220.208,220.208,67.32273,-26.99438,1009.8,3.76,-999.0,yes,yes,no,300234063949810,BD2GHI,AOML,DNR,North
2018-08-08T06:00:00Z,1533708000,2018,6,0,220.25,220.25,67.32893,-26.96742,1009.5,3.72,-999.0,yes,yes,no,300234063949810,BD2GHI,AOML,DNR,North
2018-08-08T07:00:28Z,1533711629,2018,7,1,220.292,220.292,67.33639,-26.94346,1009.2,3.65,-999.0,yes,yes,no,300234063949810,BD2GHI,AOML,DNR,North
2018-08-08T07:59:31Z,1533715171,2018,8,0,220.333,220.333,67.3423,-26.92445,1009.1,3.66,-999.0,yes,yes,no,300234063949810,BD2GHI,AOML,DNR,North
2018-08-08T09:00:00Z,1533718800,2018,9,0,220.375,220.375,67.34463,-26.9114,1008.7,3.74,-999.0,yes,yes,no,300234063949810,BD2GHI,AOML,DNR,North
2018-08-08T10:00:28Z,1533722429,2018,10,0,220.417,220.417,67.34336,-26.91192,1008.5,3.76,-999.0,yes,yes,no,300234063949810,BD2GHI,AOML,DNR,North
2018-08-08T10:59:31Z,1533725971,2018,11,0,220.458,220.458,67.34219,-26.92304,1008.0,3.73,-999.0,yes,yes,no,300234063949810,BD2GHI,AOML,DNR,North
2018-08-08T12:00:00Z,1533729600,2018,12,0,220.5,220.5,67.33857,-26.9402,1008.1,3.8,-999.0,yes,yes,no,300234063949810,BD2GHI,AOML,DNR,North
2018-08-08T13:00:28Z,1533733229,2018,13,0,220.542,220.542,67.33527,-26.96039,1007.8,3.9,-999.0,yes,yes,no,300234063949810,BD2GHI,AOML,DNR,North
2018-08-08T13:59:31Z,1533736771,2018,14,0,220.583,220.583,67.33274,-26.98084,1007.4,3.92,-999.0,yes,yes,no,300234063949810,BD2GHI,AOML,DNR,North
2018-08-08T15:00:00Z,1533740400,2018,15,0,220.625,220.625,67.33295,-27.01109,1006.9,3.98,-999.0,yes,yes,no,300234063949810,BD2GHI,AOML,DNR,North